Погода в Чиракчи

Узбекистан     39°01′54″N   66°34′20″E
темп.,
°C
ветер,
м/с
пор.,
м/с
влажн.,
%
обл.,
%
осадки,
мм/ч
давл.,
гПа
погр.,
м
3 марта, ср
ср323:00+12ю1237100 0.0 102329
02:00+11юв3550100 0.0 1023137
05:00+9ю236098 0.0 102398
08:00+9всв126990 0.0 102363
11:00+13юз225255 0.0 1022932
14:00+16зюз45340 0.0 10201889
17:00+15зюз333854 0.0 10191824
20:00+11с234041 0.0 102041
4 марта, чт
чт423:00+10всв125121 0.0 102022
02:00+9в22570 0.0 101922
05:00+9в235731 0.0 101829
08:00+10св236293 0.5 101864
11:00+15всв223795 1.1 1017526
14:00+20зюз81030100 0.1 10162689
17:00+19зюз693392 0.1 10172084
20:00+11ссз5126369 1.0 1021596
5 марта, пт
пт523:00+10з456066 1.1 1025262
02:00+7зюз3380100 2.4 1027474
05:00+7св2279100 3.9 1028340
08:00+7с238071 0.0 1028163
11:00+11зсз116141 0.0 1027745
14:00+14сз11470 0.0 1023778
17:00+15ссз11420 0.0 1020998
20:00+12св235034 0.0 101935
6 марта, сб
сб623:00+11всв465968 0.0 1017123
02:00+11св3344100 0.0 101353
05:00+12всв4731100 0.0 1010123
08:00+12з4635100 0.0 1009102
11:00+10всв6986100 5.0 1010390
14:00+14ююз81250100 0.5 10111324
17:00+11юз121666100 0.6 10121294
20:00+8ююз101576100 0.2 10171161
7 марта, вс
вс723:00+6юз91288100 0.4 1019836
02:00+5юз71187100 0.3 1020736
05:00+5юз5886100 0.4 1021660
08:00+4юз5790100 0.2 1022531
11:00+4зюз2487100 0.5 1022373
14:00+8юз1361100 0.0 1019938
17:00+9в446178 0.0 1017522
20:00+7в34730 0.0 101771